Weather History for Madison, SD

Change the Weather History Date:

Thursday, November 24, 2011

  Actual Average Record
Temperature  
Mean Temperature 50 °F -  
Max Temperature 64 °F 33 °F 64 °F (2011)
Min Temperature 35 °F 16 °F 6 °F (2013)
Degree Days  
Heating Degree Days 16    
Moisture  
Dew Point 31 °F    
Average Humidity 58    
Maximum Humidity 87    
Minimum Humidity 30    
Precipitation  
Precipitation 0.00 in - - ()
Sea Level Pressure  
Sea Level Pressure 29.76 in    
Wind  
Wind Speed 12 mph (SSW)    
Max Wind Speed 21 mph    
Max Gust Speed 22 mph    
Visibility 10 miles    
Events      
Averages and records for this station are not official NWS values.
T = Trace of Precipitation, MM = Missing Value Source: NWS Daily Summary

Daily Weather History Graph

Daily Weather History Graph

Search for Another Location

Airport:

Trip Planner

Search our weather history database for the weather conditions in past years. The results will help you decide how hot, cold, wet, or windy it might be!

Date:

Astronomy

Nov. 24, 2011 Rise Set
Actual Time 7:34 AM CST 4:55 PM CST
Civil Twilight 7:02 AM CST 5:26 PM CST
Nautical Twilight 6:27 AM CST 6:02 PM CST
Astronomical Twilight 5:52 AM CST 6:36 PM CST
Moon 6:54 AM CST (11/24) 4:25 PM CST (11/24)
Length of Visible Light 10h 24m
Length of Day
9h 20m
Waning Crescent, 0% of the Moon is Illuminated
Nov 24
Waning Crescent
Nov 25
New
Dec 2
First Quarter
Dec 10
Full
Dec 17
Last Quarter

Hourly Weather History & Observations

Time (CST) Temp. Windchill Dew Point Humidity Pressure Visibility Wind Dir Wind Speed Gust Speed Precip Events Conditions
12:10 AM 35.6 °F 28.0 °F 32.0 °F 87% 29.90 in 10.0 mi South 10.4 mph - N/A   Clear
12:30 AM 35.6 °F 27.5 °F 32.0 °F 87% 29.89 in 10.0 mi South 11.5 mph - N/A   Clear
12:50 AM 35.6 °F 28.0 °F 32.0 °F 87% 29.88 in 10.0 mi South 10.4 mph - N/A   Clear
1:10 AM 35.6 °F 28.0 °F 32.0 °F 87% 29.87 in 10.0 mi South 10.4 mph - N/A   Clear
1:30 AM 35.6 °F 27.5 °F 32.0 °F 87% 29.86 in 10.0 mi South 11.5 mph - N/A   Clear
1:50 AM 37.4 °F 28.5 °F 32.0 °F 81% 29.84 in 10.0 mi South 15.0 mph - N/A   Clear
2:10 AM 35.6 °F 26.2 °F 32.0 °F 87% 29.84 in 10.0 mi South 15.0 mph - N/A   Clear
2:30 AM 37.4 °F 28.5 °F 32.0 °F 81% 29.84 in 10.0 mi South 15.0 mph - N/A   Clear
3:10 AM 37.4 °F 29.3 °F 32.0 °F 81% 29.83 in 10.0 mi South 12.7 mph - N/A   Clear
3:30 AM 37.4 °F 29.8 °F 32.0 °F 81% 29.83 in 10.0 mi South 11.5 mph - N/A   Clear
4:10 AM 37.4 °F 30.8 °F 30.2 °F 75% 29.82 in 10.0 mi South 9.2 mph - N/A   Clear
4:30 AM 37.4 °F 29.8 °F 30.2 °F 75% 29.81 in 10.0 mi South 11.5 mph - N/A   Clear
5:10 AM 39.2 °F 30.8 °F 30.2 °F 70% 29.80 in 10.0 mi SSW 15.0 mph - N/A   Clear
5:30 AM 39.2 °F 31.6 °F 30.2 °F 70% 29.80 in 10.0 mi SSW 12.7 mph 18.4 mph N/A   Clear
5:50 AM 39.2 °F 31.6 °F 30.2 °F 70% 29.80 in 10.0 mi SSW 12.7 mph - N/A   Clear
6:10 AM 35.6 °F 29.2 °F 30.2 °F 81% 29.81 in 10.0 mi South 8.1 mph - N/A   Clear
6:30 AM 35.6 °F 28.6 °F 28.4 °F 75% 29.81 in 10.0 mi SSW 9.2 mph - N/A   Clear
6:50 AM 35.6 °F 27.5 °F 28.4 °F 75% 29.80 in 10.0 mi SSW 11.5 mph - N/A   Clear
7:30 AM 37.4 °F 30.3 °F 28.4 °F 70% 29.80 in 10.0 mi SSW 10.4 mph - N/A   Clear
7:50 AM 37.4 °F 30.3 °F 28.4 °F 70% 29.80 in 10.0 mi SSW 10.4 mph - N/A   Clear
8:10 AM 39.2 °F 33.0 °F 30.2 °F 70% 29.80 in 10.0 mi SSW 9.2 mph - N/A   Clear
8:30 AM 39.2 °F 32.5 °F 30.2 °F 70% 29.79 in 10.0 mi SSW 10.4 mph - N/A   Clear
8:50 AM 41.0 °F 35.8 °F 32.0 °F 70% 29.79 in 10.0 mi SSW 8.1 mph - N/A   Clear
9:10 AM 41.0 °F 33.9 °F 32.0 °F 70% 29.79 in 10.0 mi SSW 12.7 mph - N/A   Clear
9:30 AM 46.4 °F 40.4 °F 32.0 °F 57% 29.78 in 10.0 mi SSW 13.8 mph - N/A   Clear
9:50 AM 48.2 °F - 32.0 °F 54% 29.77 in 10.0 mi SSW 15.0 mph - N/A   Clear
10:10 AM 50.0 °F - 32.0 °F 50% 29.77 in 10.0 mi South 13.8 mph - N/A   Clear
10:30 AM 51.8 °F - 30.2 °F 44% 29.78 in 10.0 mi SSW 20.7 mph - N/A   Clear
10:50 AM 51.8 °F - 30.2 °F 44% 29.77 in 10.0 mi SSW 15.0 mph 21.9 mph N/A   Clear
11:10 AM 53.6 °F - 30.2 °F 41% 29.76 in 10.0 mi SSW 17.3 mph 21.9 mph N/A   Clear
11:30 AM 55.4 °F - 30.2 °F 38% 29.75 in 10.0 mi SSW 12.7 mph - N/A   Clear
11:50 AM 59.0 °F - 30.2 °F 34% 29.74 in 10.0 mi SSW 16.1 mph - N/A   Clear
12:10 PM 59.0 °F - 32.0 °F 36% 29.72 in 10.0 mi South 16.1 mph 19.6 mph N/A   Clear
12:30 PM 60.8 °F - 32.0 °F 34% 29.72 in 10.0 mi South 13.8 mph - N/A   Clear
1:10 PM 62.6 °F - 32.0 °F 32% 29.71 in 10.0 mi South 13.8 mph - N/A   Clear
2:10 PM 64.4 °F - 32.0 °F 30% 29.68 in 10.0 mi SSW 17.3 mph - N/A   Clear
2:30 PM 64.4 °F - 33.8 °F 32% 29.67 in 10.0 mi South 18.4 mph - N/A   Clear
2:50 PM 62.6 °F - 32.0 °F 32% 29.67 in 10.0 mi South 17.3 mph - N/A   Clear
3:10 PM 62.6 °F - 32.0 °F 32% 29.67 in 10.0 mi SSW 17.3 mph 21.9 mph N/A   Clear
3:30 PM 62.6 °F - 32.0 °F 32% 29.67 in 10.0 mi South 15.0 mph - N/A   Clear
3:50 PM 60.8 °F - 32.0 °F 34% 29.67 in 10.0 mi SSW 13.8 mph - N/A   Clear
4:10 PM 59.0 °F - 32.0 °F 36% 29.67 in 10.0 mi South 11.5 mph - N/A   Clear
4:30 PM 57.2 °F - 33.8 °F 41% 29.68 in 10.0 mi South 11.5 mph - N/A   Partly Cloudy
4:50 PM 55.4 °F - 33.8 °F 44% 29.68 in 10.0 mi South 12.7 mph - N/A   Clear
5:10 PM 51.8 °F - 33.8 °F 50% 29.69 in 10.0 mi South 9.2 mph - N/A   Clear
5:30 PM 50.0 °F - 32.0 °F 50% 29.69 in 10.0 mi South 9.2 mph - N/A   Clear
5:50 PM 48.2 °F - 32.0 °F 54% 29.69 in 10.0 mi South 8.1 mph - N/A   Clear
6:10 PM 48.2 °F - 32.0 °F 54% 29.70 in 10.0 mi South 5.8 mph - N/A   Clear
6:50 PM 48.2 °F - 32.0 °F 54% 29.70 in 10.0 mi SSE 3.5 mph - N/A   Clear
7:30 PM 48.2 °F - 32.0 °F 54% 29.69 in 10.0 mi SSW 6.9 mph - N/A   Clear
7:50 PM 48.2 °F - 32.0 °F 54% 29.69 in 10.0 mi SW 9.2 mph - N/A   Clear
8:10 PM 48.2 °F - 32.0 °F 54% 29.69 in 10.0 mi WSW 12.7 mph 17.3 mph N/A   Clear
8:30 PM 50.0 °F - 32.0 °F 50% 29.68 in 10.0 mi SW 15.0 mph 19.6 mph N/A   Clear
8:50 PM 50.0 °F - 32.0 °F 50% 29.67 in 10.0 mi SW 17.3 mph 21.9 mph N/A   Clear
9:10 PM 48.2 °F - 32.0 °F 54% 29.67 in 10.0 mi SW 13.8 mph - N/A   Clear
9:30 PM 46.4 °F 41.5 °F 32.0 °F 57% 29.66 in 10.0 mi SW 10.4 mph - N/A   Clear
9:50 PM 46.4 °F 41.5 °F 32.0 °F 57% 29.66 in 10.0 mi SW 10.4 mph - N/A   Clear
10:10 PM 46.4 °F 41.1 °F 32.0 °F 57% 29.66 in 10.0 mi SW 11.5 mph 18.4 mph N/A   Clear
10:30 PM 46.4 °F 41.5 °F 32.0 °F 57% 29.66 in 10.0 mi SW 10.4 mph - N/A   Clear
11:50 PM 44.6 °F 38.8 °F 32.0 °F 61% 29.67 in 10.0 mi WSW 11.5 mph - N/A   Clear